Location: Trebic
(49.2170°N, 15.8830°E)
Time: 20:02:17
(UTC+02:00)

Transit 4A - All Passes

Search period start: 25 August 2019 00:00
Search period end: 04 September 2019 00:00
Orbit: 864 x 981 km, 66.8° (Epoch: 25 August)

Date Brightness Start Highest point End Pass type
(mag) Time Alt. Az. Time Alt. Az. Time Alt. Az.
25 Aug - 01:40:29 10° NNW 01:46:12 35° NE 01:51:46 10° ESE visible
25 Aug - 03:26:52 10° NW 03:33:00 64° WSW 03:38:57 10° SSE visible
25 Aug - 05:16:06 10° W 05:18:07 12° W 05:20:07 10° WSW visible
25 Aug - 16:53:59 10° SE 16:57:49 17° ESE 17:01:39 10° ENE daylight
25 Aug - 18:36:50 10° SSW 18:43:15 79° ESE 18:49:39 10° NE daylight
25 Aug - 20:24:37 10° W 20:30:16 32° NW 20:35:55 10° NNE visible
25 Aug - 22:14:52 10° NW 22:18:46 16° N 22:22:38 10° NNE visible
26 Aug - 00:03:24 10° NNW 00:07:45 19° NNE 00:12:01 10° ENE visible
26 Aug - 01:49:48 10° NNW 01:55:48 45° NE 02:01:36 10° ESE visible
26 Aug - 03:36:22 10° NW 03:42:14 45° WSW 03:47:54 10° S visible
26 Aug - 17:01:53 10° SSE 17:06:50 24° ESE 17:11:47 10° NE daylight
26 Aug - 18:46:11 10° SW 18:52:36 79° NW 18:59:01 10° NE daylight
26 Aug - 20:34:42 10° W 20:39:59 26° NNW 20:45:13 10° NNE visible
26 Aug - 22:24:58 10° NW 22:28:42 16° N 22:32:22 10° NNE visible
27 Aug - 00:12:51 10° NNW 00:17:35 21° NNE 00:22:13 10° ENE visible
27 Aug - 01:59:08 10° NNW 02:05:19 59° NE 02:11:17 10° SE visible
27 Aug - 03:46:00 10° NW 03:51:22 32° WSW 03:56:36 10° S visible
27 Aug - 17:10:18 10° S 17:15:56 34° ESE 17:21:33 10° NE daylight
27 Aug - 18:55:43 10° SW 19:02:03 60° NW 19:08:21 10° NNE daylight
27 Aug - 20:44:53 10° WNW 20:49:46 22° NNW 20:54:35 10° NNE visible
27 Aug - 22:34:57 10° NNW 22:38:38 16° N 22:42:16 10° NE visible
28 Aug - 00:22:14 10° NNW 00:27:22 25° NNE 00:32:22 10° E visible
28 Aug - 02:08:29 10° NW 02:14:45 79° NE 02:20:47 10° SE visible
28 Aug - 03:55:49 10° WNW 04:00:27 23° WSW 04:04:57 10° SSW visible
28 Aug - 17:19:02 10° S 17:25:06 47° ESE 17:31:10 10° NE daylight
28 Aug - 19:05:25 10° WSW 19:11:34 46° NW 19:17:41 10° NNE daylight
28 Aug - 20:55:08 10° WNW 20:59:35 19° NNW 21:04:00 10° NNE visible
28 Aug - 22:44:44 10° NNW 22:48:34 16° N 22:52:20 10° NE visible
29 Aug - 00:31:34 10° NNW 00:37:04 31° NE 00:42:25 10° E visible
29 Aug - 02:17:52 10° NW 02:24:07 78° WSW 02:30:06 10° SSE visible
29 Aug - 04:06:03 10° WNW 04:09:26 15° WSW 04:12:46 10° SW visible
29 Aug - 15:46:27 10° SE 15:49:07 13° E 15:51:47 10° ENE daylight
29 Aug - 17:28:01 10° SSW 17:34:20 65° ESE 17:40:39 10° NE daylight
29 Aug - 19:15:17 10° WSW 19:21:09 36° NW 19:26:59 10° NNE daylight
29 Aug - 21:05:23 10° NW 21:09:28 17° NNW 21:13:30 10° NNE visible
29 Aug - 22:54:22 10° NNW 22:58:28 17° NNE 23:02:30 10° NE visible
30 Aug - 00:40:54 10° NNW 00:46:43 38° NE 00:52:21 10° ESE visible
30 Aug - 02:27:20 10° NW 02:33:23 56° WSW 02:39:13 10° SSE visible
30 Aug - 15:53:48 10° SSE 15:58:06 19° ESE 16:02:24 10° ENE daylight
30 Aug - 17:37:13 10° SSW 17:43:39 87° ESE 17:50:04 10° NE daylight
30 Aug - 19:25:18 10° W 19:30:49 29° NNW 19:36:18 10° NNE daylight
30 Aug - 21:15:35 10° NW 21:19:23 16° N 21:23:08 10° NNE visible
30 Aug - 23:03:52 10° NNW 23:08:20 20° NNE 23:12:43 10° ENE visible
31 Aug - 00:50:13 10° NNW 00:56:17 49° NE 01:02:07 10° ESE visible
31 Aug - 02:36:52 10° NW 02:42:34 40° WSW 02:48:05 10° S visible
31 Aug - 16:01:55 10° SSE 16:07:09 27° ESE 16:12:22 10° NE daylight
31 Aug - 17:46:38 10° SW 17:53:03 71° NW 17:59:26 10° NNE daylight
31 Aug - 19:35:25 10° W 19:40:33 24° NNW 19:45:38 10° NNE daylight
31 Aug - 21:25:40 10° NW 21:29:19 16° N 21:32:56 10° NE visible
31 Aug - 23:13:17 10° NNW 23:18:09 23° NNE 23:22:54 10° ENE visible
01 Sep - 00:59:32 10° NNW 01:05:46 65° NE 01:11:45 10° SE visible
01 Sep - 02:46:34 10° NW 02:51:41 28° WSW 02:56:40 10° SSW visible
01 Sep - 16:10:27 10° S 16:16:16 38° ESE 16:22:04 10° NE daylight
01 Sep - 17:56:14 10° SW 18:02:30 54° NW 18:08:45 10° NNE daylight
01 Sep - 19:45:38 10° WNW 19:50:20 21° NNW 19:55:00 10° NNE daylight
01 Sep - 21:35:34 10° NNW 21:39:15 16° N 21:42:54 10° NE visible
01 Sep - 23:22:39 10° NNW 23:27:54 27° NNE 23:33:01 10° E visible
02 Sep - 01:08:54 10° NW 01:15:10 87° NE 01:21:11 10° SE visible
02 Sep - 02:56:30 10° WNW 03:00:43 20° WSW 03:04:52 10° SSW visible
02 Sep - 16:19:16 10° SSW 16:25:28 53° ESE 16:31:38 10° NE daylight
02 Sep - 18:06:00 10° WSW 18:12:03 42° NW 18:18:04 10° NNE daylight
02 Sep - 19:55:54 10° WNW 20:00:11 18° NNW 20:04:26 10° NNE daylight
02 Sep - 21:45:17 10° NNW 21:49:10 17° N 21:53:00 10° NE visible
02 Sep - 23:31:59 10° NNW 23:37:36 33° NE 23:43:02 10° E visible
03 Sep - 01:18:19 10° NW 01:24:29 70° WSW 01:30:25 10° SSE visible
03 Sep - 03:07:01 10° WNW 03:09:41 13° W 03:12:19 10° SW visible
03 Sep - 14:46:00 10° SE 14:49:23 15° ESE 14:52:47 10° ENE daylight
03 Sep - 16:28:21 10° SSW 16:34:44 73° ESE 16:41:05 10° NE daylight
03 Sep - 18:15:55 10° W 18:21:40 33° NW 18:27:22 10° NNE daylight
03 Sep - 20:06:08 10° NW 20:10:05 17° N 20:13:59 10° NNE visible
03 Sep - 21:54:52 10° NNW 21:59:04 18° NNE 22:03:12 10° ENE visible
03 Sep - 23:41:18 10° NNW 23:47:12 42° NE 23:52:54 10° ESE visible
